User: anonymous   Login
Location: Dąbrówka
(52.2799°N, 15.8070°E)
Time: 13:25:34
(UTC+02:00)
Language:

CUTE-I - Orbit

View from above orbital plane
View from above orbital plane
View from above satellite
View from above satellite

Ground track
Ground track

The orbit data is extracted from the following two-line orbital elements,

1 27844U 03031E   19170.91935821 +.00000018 +00000-0 +27913-4 0  9993
2 27844 098.6833 179.1146 0010527 034.0402 326.1449 14.22181598828425
Epoch (UTC): 19 June 2019 22:03:52
Eccentricity: 0.0010527
inclination: 98.6833°
perigee height: 810 km
apogee height: 825 km
right ascension of ascending node: 179.1146°
argument of perigee: 34.0402°
revolutions per day: 14.22181598
mean anomaly at epoch: 326.1449°
orbit number at epoch: 82842

The dashed part of the orbit path shows where the satellite is in the earth's shadow,  

DLR